Regional Weather Roundup
Issued by NWS

Home | Current Version | Previous Version | Graphics & Text | Print | Product List | Glossary On
Versions: 1 2 3 4 5 6 7 8 9 10 11 12 13 14 15 16 17 18 19 20 21 22 23 24 25 26 27 28 29 30 31 32 33 34 35 36 37 38 39 40 41 42 43 44 45 46 47 48 49 50
000
ASUS43 KTOP 020259
RWRKS

WEATHER ROUNDUP FOR KANSAS
NATIONAL WEATHER SERVICE GOODLAND KS
1000 PM CDT MON JUN 01 2015

NOTE:  "FAIR" INDICATES FEW OR NO CLOUDS BELOW 12,000 FEET WITH NO
SIGNIFICANT WEATHER AND/OR OBSTRUCTIONS TO VISIBILITY.

KSZ001>006-013>018-027>032-041>047-020400-
NORTHWEST KANSAS

CITY           SKY/WX    TMP DP  RH WIND       PRES   REMARKS
GOODLAND       MOCLDY    70  63  78 S10       29.99R
HAYS           CLEAR     66  57  72 SE10      30.01S
HILL CITY      CLEAR     69  62  78 SE8       30.00R
RUSSELL        CLEAR     67  61  81 SE12      30.00F
$$

KSZ061>065-074>080-084>089-020400-
SOUTHWEST KANSAS

CITY           SKY/WX    TMP DP  RH WIND       PRES   REMARKS
DODGE CITY     CLEAR     70  62  76 SE14      30.00S
ELKHART          N/A     72  58  61 SE14        N/A
GARDEN CITY    PTCLDY    71  63  75 SE14      29.99R
GREAT BEND     CLEAR     68  61  77 SE10      30.01S
LIBERAL        MOCLDY    73  63  68 SE13      30.01R
$$

KSZ066>073-081>083-090>101-020400-
SOUTHEAST KANSAS

CITY           SKY/WX    TMP DP  RH WIND       PRES   REMARKS
CHANUTE        CLEAR     62  57  83 E7        30.09R
COFFEYVILLE    PTCLDY    63  61  93 NE5       30.07R
HUTCHINSON     CLOUDY    71  58  63 SE9       30.04R
MEDICINE LODGE   N/A     72  62  71 SE8       30.01S
NEWTON         CLOUDY    66  55  68 SE8       30.09R
PARSONS        PTCLDY    64  59  83 CALM      30.09R
WICHITA INTL   PTCLDY    69  59  70 SE9       30.04S
WICHITA JABRA  MOCLDY    66  58  75 E8        30.06R
WINFIELD       CLEAR     68  59  73 E8        30.06R
$$

KSZ007>012-019>026-033>040-048>060-102>105-020400-
NORTHEAST KANSAS

CITY           SKY/WX    TMP DP  RH WIND       PRES   REMARKS
CONCORDIA      CLOUDY    67  56  67 SE13      30.05S
EMPORIA        MOCLDY    60  56  86 E7        30.09R
LAWRENCE       CLOUDY    61  54  77 SE10      30.12R
MANHATTAN      CLEAR     64  58  80 SE9       30.08R
OLATHE IND     CLOUDY    60  54  80 E6        30.13R
OLATHE EXE     CLOUDY    60  54  80 SE7       30.11R
SALINA         CLOUDY    70  58  65 E12       30.05R
TOPEKA BILLARD PTCLDY    60  53  77 E8        30.11R
TOPEKA FORBES  CLEAR     60  53  77 E7        30.10R
$$



USA.gov is the U.S. government's official web portal to all federal, state and local government web resources and services.